AO-07 1 07530U 74089B 15245.95785856 -.00000039 00000-0 29920-4 0 9992 2 07530 101.5295 219.2615 0012070 149.5496 225.9236 12.53616196866777 FO-29 1 24278U 96046B 15245.86762964 -.00000026 00000-0 11445-4 0 9991 2 24278 098.5493 204.1883 0349581 229.3334 185.4779 13.53055714940261 SO-33 1 25509U 98061B 15245.22171405 .00000434 00000-0 74639-4 0 9998 2 25509 031.4311 174.7032 0347533 028.8175 333.1182 14.30050302880988 RS-22 1 27939U 03042A 15245.88156807 .00000117 00000-0 29483-4 0 9998 2 27939 097.8511 044.3610 0013873 136.9336 223.2951 14.66136427637576 HO-68 1 36122U 09072B 15245.76921995 -.00000060 00000-0 -43517-4 0 9999 2 36122 100.1881 287.7839 0006878 303.0367 057.0086 13.16328927274663 AO-73 1 39444U 13066AE 15245.69101265 .00000719 00000-0 98249-4 0 9990 2 39444 097.7237 305.5866 0058338 242.2896 117.2391 14.80427162094297 EO-79 1 40025U 14033R 15245.72191256 .00000771 00000-0 91528-4 0 9996 2 40025 097.9437 146.0717 0011496 294.0991 065.9022 14.87333595065310 UO-11 1 14781U 84021B 15245.92515217 .00000300 00000-0 43841-4 0 9992 2 14781 097.7940 301.0640 0008846 167.7899 192.3531 14.82492620672542 AO-16 1 20439U 90005D 15245.80629420 .00000059 00000-0 37727-4 0 9994 2 20439 098.5433 180.8741 0009771 294.8245 118.6312 14.32566196337850 LO-19 1 20442U 90005G 15245.79125924 .00000053 00000-0 35539-4 0 9999 2 20442 098.5141 180.1811 0010602 280.8038 079.1952 14.32756923338054 AO-27 1 22825U 93061C 15245.87903440 .00000040 00000-0 32934-4 0 9999 2 22825 098.7154 196.0365 0009596 082.0384 347.3660 14.29900165143766 IO-26 1 22826U 93061D 15245.83494123 .00000048 00000-0 35878-4 0 9997 2 22826 098.7097 196.1502 0010108 074.7670 285.4629 14.30219087144186 GO-32 1 25397U 98043D 15245.84029524 .00000009 00000-0 22401-4 0 9993 2 25397 098.5263 193.8743 0002443 094.0652 319.1588 14.23558275890616 NO-44 1 26931U 01043C 15245.62806858 .00000025 00000-0 41380-4 0 9996 2 26931 067.0532 337.3297 0006013 274.5406 085.5008 14.30338992726809 SO-50 1 27607U 02058C 15245.61113717 .00000251 00000-0 56437-4 0 9998 2 27607 064.5562 322.3710 0083182 273.4518 085.7072 14.74829257682578 CO-55 1 27844U 03031E 15245.59200346 .00000103 00000-0 66558-4 0 9996 2 27844 098.6965 253.0186 0010912 078.7074 281.5329 14.21840065631394 CO-57 1 27848U 03031J 15245.58561692 .00000079 00000-0 55844-4 0 9991 2 27848 098.7062 252.9598 0010829 085.5681 042.2513 14.21481959631300 AO-51 1 28375U 04025K 15245.83478347 .00000083 00000-0 37243-4 0 9991 2 28375 098.2964 184.0663 0084007 094.9739 266.1047 14.41690359587685 CP3 1 31129U 07012N 15245.86245815 .00000482 00000-0 11298-3 0 9990 2 31129 097.9888 208.2934 0097891 071.9497 346.7437 14.55921412444422 CO-65 1 32785U 08021C 15245.84614023 .00000650 00000-0 78291-4 0 9993 2 32785 097.6421 286.5257 0013825 164.0898 313.1509 14.87037150397698 PRISM 1 33493U 09002B 15245.87904955 .00002363 00000-0 22901-3 0 9998 2 33493 098.2462 087.0737 0017401 075.7309 284.5786 14.93651239358178 SOHLA-1 1 33496U 09002E 15245.91034970 .00000189 00000-0 38770-4 0 9993 2 33496 098.2225 014.4993 0005024 278.8789 193.6744 14.71417113354168 TISAT-1 1 36799U 10035E 15245.85664984 .00001210 00000-0 13535-3 0 9994 2 36799 098.0192 347.1628 0011843 316.9691 165.2981 14.88792524278513 STUDSAT 1 36801U 10035G 15245.94265372 .00011107 00000-0 60867-3 0 9992 2 36801 098.0694 009.8667 0005270 228.1393 131.9388 15.14380902279604 ALMASAT-1 1 38078U 12006B 15245.89468323 .00039374 34785-5 65007-3 0 9994 2 38078 069.4531 043.9898 0462157 149.9774 212.8803 14.82883964186544 CUBEBUG-1 1 39153U 13018D 15245.73517883 .00000567 00000-0 83060-4 0 9992 2 39153 098.0149 329.8742 0017335 007.5572 352.5897 14.79376459126940 ESTCUBE-1 1 39161U 13021C 15245.86989240 .00000684 00000-0 11875-3 0 9993 2 39161 098.0702 328.1119 0011019 070.7177 289.5207 14.71282870124666 DUCHIFAT-1 1 40021U 14033M 15245.69898689 .00001136 00000-0 12888-3 0 9999 2 40021 097.9457 146.5155 0012155 294.2271 065.7675 14.88302206065335 NANOSATCBR1 1 40024U 14033Q 15245.71176726 .00000980 00000-0 11323-3 0 9995 2 40024 097.9440 146.2469 0011333 293.5175 066.4850 14.87851463065322 DTUSAT-2 1 40030U 14033W 15245.69945696 .00000776 00000-0 92969-4 0 9998 2 40030 097.9424 145.7316 0010848 286.7738 073.2287 14.86959927065294 ANTELSAT 1 40034U 14033AA 15245.69598256 .00000848 00000-0 13694-3 0 9995 2 40034 097.9344 136.0017 0058655 230.8654 128.7331 14.72869564064708 MET-2/21 1 22782U 93055A 15245.95505214 .00000102 00000-0 78467-4 0 9990 2 22782 082.5515 181.9608 0023776 101.8579 327.7160 13.83775612111088 OKEAN-4 1 23317U 94066A 15245.90450975 .00000543 00000-0 57918-4 0 9993 2 23317 082.5397 012.4156 0021552 073.7506 048.1628 14.86801783128853 NOAA-14 1 23455U 94089A 15245.89029963 .00000009 00000-0 27543-4 0 9996 2 23455 098.7487 325.7316 0008866 213.4693 210.2496 14.14051254066268 NOAA-15 1 25338U 98030A 15245.91973946 .00000052 00000-0 41002-4 0 9994 2 25338 098.7764 244.6219 0009671 307.2768 052.7529 14.25657153899654 RESURS 1 25394U 98043A 15245.89925169 -.00000033 00000-0 39377-5 0 9994 2 25394 098.4726 198.2073 0002462 065.7436 358.7234 14.24457423891349 FENGYUN1 1 25730U 99025A 15245.89848609 .00000739 00000-0 41501-3 0 9994 2 25730 098.9477 210.7565 0019887 287.9475 129.6523 14.13603394839994 OKEAN-0 1 25860U 99039A 15245.93487789 .00000262 00000-0 45445-4 0 9999 2 25860 098.1029 214.1521 0001910 085.2483 337.2232 14.76122154867342 NOAA-16 1 26536U 00055A 15245.91026153 .00000015 00000-0 32156-4 0 9993 2 26536 098.9359 311.7891 0010745 018.7475 341.4091 14.13106956067131 NOAA-17 1 27453U 02032A 15245.95395790 .00000011 00000-0 22168-4 0 9997 2 27453 098.3473 228.1277 0010929 320.1546 039.8831 14.24897392685727 NOAA-18 1 28654U 05018A 15245.92608380 .00000063 00000-0 59556-4 0 9995 2 28654 099.1892 240.4846 0015340 101.7652 258.5240 14.12230171529956 NOAA-19 1 33591U 09005A 15245.83198408 .00000096 00000-0 77164-4 0 9997 2 33591 098.9964 195.9228 0013360 315.1335 044.8755 14.11972341338187 HUBBLE 1 20580U 90037B 15245.55984366 .00001144 00000-0 61834-4 0 9993 2 20580 028.4711 003.8225 0002883 352.3917 071.3635 15.07658504191413 ISS 1 25544U 98067A 15244.94032382 -.00000699 00000-0 -30909-5 0 9999 2 25544 51.6442 60.7943 0002397 169.9165 283.1695 15.55269059959982 CO-58 1 28895U 05043F 15245.75934665 .00000314 00000-0 69940-4 0 9996 2 28895 097.8224 069.4870 0018233 054.3685 305.9213 14.62882458524932 FALCON 1 30776U 07006E 15245.45468400 .00004279 00000-0 16773-3 0 9993 2 30776 35.4267 236.4082 0002486 249.1821 245.3419 15.25309186468101 MAST 1 31126U 07012K 15245.85427912 .00000334 00000-0 81443-4 0 9992 2 31126 097.9690 210.3968 0092084 054.1276 000.5134 14.56128015444796 CAPE1 1 31130U 07012P 15245.86259788 .00000438 00000-0 10412-3 0 9994 2 31130 097.9905 207.7426 0098601 073.9603 287.2427 14.55588650444190 COMPASS 1 32787U 08021E 15245.86008612 .00001197 00000-0 12636-3 0 9995 2 32787 097.6444 291.1301 0013922 149.5748 210.6281 14.91019933398038 AAUSAT2 1 32788U 08021F 15245.93308318 .00001369 00000-0 13998-3 0 9993 2 32788 097.6453 292.8479 0013427 145.7238 214.4851 14.92093915398099 DO-64 1 32789U 08021G 15245.96316178 .00002505 00000-0 20250-3 0 9992 2 32789 097.6674 305.0193 0013601 150.3888 336.4451 15.00643799398634 CO-66 1 32791U 08021J 15245.64537259 .00000905 00000-0 10166-3 0 9992 2 32791 097.6441 288.5324 0014491 157.2640 202.9222 14.89005267397764 RS-30 1 32953U 08025A 15245.90444911 .00000010 00000-0 -13620-7 0 9997 2 32953 082.5036 285.9150 0017460 271.1249 088.7846 12.43063219330268 METEOR-M 1 35865U 09049A 15245.96987499 .00000024 00000-0 29779-4 0 9991 2 35865 098.4942 283.5027 0001432 231.3523 189.8582 14.22046737309112 RS-38 1 35869U 09049E 15245.90630954 .00000034 00000-0 34253-4 0 9994 2 35869 098.4859 283.0337 0003623 246.4856 113.5937 14.22307827309301 JUGNU 1 37839U 11058B 15244.03591492 .00000354 00000-0 46741-4 0 9992 2 37839 19.9615 102.6890 0019134 162.3160 355.3102 14.12485115200953 SRMSAT 1 37841U 11058D 15245.07500860 .00000342 00000-0 43323-4 0 9999 2 37841 19.9719 124.6595 0011953 97.3796 53.4163 14.10494380200821 RAX-2 1 37853U 11061D 15245.91714228 .00002053 00000-0 13103-3 0 9997 2 37853 101.6971 135.1952 0194659 208.3928 282.7094 14.96766795208243 AUBIESAT 1 37854U 11061E 15245.61960186 .00001867 00000-0 11665-3 0 9994 2 37854 101.6998 138.6971 0185350 203.0889 156.1911 14.98953107208360 HRBE 1 37855U 11061F 15245.69135063 .00001862 00000-0 11609-3 0 9994 2 37855 101.6974 137.1729 0195160 206.4493 152.6651 14.97753622208280 HORYU-2 1 38340U 12025D 15245.82125580 .00000628 00000-0 10262-3 0 9996 2 38340 098.3213 217.7930 0011161 203.7371 156.3323 14.74463806166568 RS-40 1 38735U 12041C 15245.81125804 .00000040 00000-0 21992-3 0 9990 2 38735 082.4765 011.5694 0016909 014.9896 345.1681 12.42569989140556 PROITERES 1 38756U 12047B 15245.82712165 .00000466 00000-0 75525-4 0 9996 2 38756 098.2249 346.4470 0013233 053.6109 306.6303 14.75906470160459 BEESAT-3 1 39134U 13015E 15245.90197266 .00003337 00000-0 19757-3 0 9995 2 39134 064.8724 168.7192 0026897 242.0169 117.8233 15.12936790130072 BEESAT-2 1 39136U 13015G 15245.91232899 .00002714 00000-0 17066-3 0 9999 2 39136 064.8731 171.7441 0027343 240.6903 119.1487 15.11177721130010 ZACUBE-1 1 39417U 13066B 15245.89063335 .00000563 00000-0 79418-4 0 9991 2 39417 097.7231 305.4695 0058990 242.7241 116.7956 14.79868535096129 TRITON-1 1 39427U 13066M 15245.77633340 .00000371 00000-0 68905-4 0 9994 2 39427 097.7078 291.9371 0114067 279.5093 079.3236 14.66773070095040 DELFIN3XT 1 39428U 13066N 15245.64058960 .00000690 00000-0 12241-3 0 9995 2 39428 097.7088 289.9834 0122417 285.3399 073.4305 14.65596697094908 GOMX-1 1 39430U 13066Q 15245.68518077 .00000645 00000-0 12856-3 0 9994 2 39430 097.7024 283.1824 0152299 305.9191 052.7934 14.58188860094679 MO-76 1 39436U 13066W 15245.82374373 .00012091 00000-0 75924-3 0 9998 2 39436 097.7405 322.5677 0021299 195.7084 164.3486 15.09243001096044 LO-74 1 39440U 13066AA 15245.76094122 .00000499 00000-0 78545-4 0 9999 2 39440 097.7172 300.0219 0080427 256.8477 102.3748 14.74674904094565 PUCPSAT-1 1 39442U 13066AC 15245.91828047 .00000986 00000-0 11023-3 0 9997 2 39442 097.7335 314.1455 0031950 224.4204 135.4450 14.88833845094813 SPROUT 1 39770U 14029E 15245.79416216 .00001134 00000-0 14238-3 0 9995 2 39770 097.8749 341.5698 0008442 312.4556 047.5918 14.84048923069149 POPSAT-HIP1 1 40028U 14033U 15245.90162199 .00001234 00000-0 14317-3 0 9998 2 40028 097.9467 146.3456 0013129 291.7678 068.2136 14.87206112065349 EO-80 1 40032U 14033Y 15245.71204943 .00000794 00000-0 95163-4 0 9995 2 40032 097.9431 145.7564 0010817 286.7825 073.2204 14.86885735065296 VELOX-1 1 40057U 14034E 15245.89382720 .00001178 00000-0 17869-3 0 9995 2 40057 098.2134 325.2642 0011325 357.3887 002.7216 14.76025867063342 DAURIA DX 1 1 40071U 14037C 15245.78603460 .00000577 00000-0 82822-4 0 9993 2 40071 098.3530 320.3773 0008585 000.3491 359.7720 14.80487828062270 UKUBE-1 1 40074U 14037F 15245.92783862 .00001186 00000-0 15531-3 0 9996 2 40074 098.3551 321.5602 0004924 012.9227 347.2085 14.82387983062357 HODOYOSHI-1 1 40299U 14070B 15245.91666812 .00002169 00000-0 10450-3 0 9993 2 40299 097.4545 326.4686 0011856 216.7952 232.3230 15.19757485045622 CHUBUSAT-1 1 40300U 14070C 15245.89119068 .00002710 00000-0 13558-3 0 9993 2 40300 097.4509 325.5073 0020905 221.0609 245.8268 15.18092039045567 QSAT-EOS 1 40301U 14070D 15245.82380674 .00004981 00000-0 24653-3 0 9990 2 40301 097.4475 324.7117 0030300 222.6272 259.4622 15.17855187045513 TSUBAME 1 40302U 14070E 15245.90551988 .00002771 00000-0 15564-3 0 9994 2 40302 097.4444 323.1547 0041340 228.0859 252.5697 15.13428316045429 FIREBIRD FU3 1 40377U 15003B 15245.87412295 .00004681 00000-0 23128-3 0 9993 2 40377 099.1111 293.7483 0155066 359.4491 000.6538 15.08560673032243 FIREBIRD FU4 1 40378U 15003C 15245.93775022 .00004589 00000-0 22665-3 0 9993 2 40378 099.1112 293.8317 0155314 359.2060 000.8894 15.08563271032253 GRIFEX 1 40379U 15003D 15245.94894472 .00003717 00000-0 18855-3 0 9994 2 40379 099.1123 293.6646 0156910 000.7261 359.4161 15.07678341032246 LAMBDA-SAT 1 40458U 98067GB 15136.30676273 .20783109 12527-4 14817-2 0 9995 2 40458 051.6075 233.7697 0010355 318.5347 043.1720 16.39926603 21161 NO-84 1 40654U 15246.30370085 .00009092 00000-0 22912-3 0 01163 2 40654 054.9892 241.1958 0244477 081.5580 281.3016 15.15577838016012 NO-83 1 40655U 15246.33021915 .00014576 00000-0 35420-3 0 01208 2 40655 054.9876 240.6924 0240822 081.8780 280.9474 15.16601083016022 DEORBITSAIL 1 40719U 15032E 15245.87497785 .00000976 00000-0 15351-3 0 9994 2 40719 098.0449 134.6629 0018515 081.1700 279.1623 14.74667524007985 /EX
